Main page
METAR-TAF:

METAR-TAF

Airports :

RAF Woodvale

Woodvale, England

latitude: 53-34-54N, longitude: 003-03-20W, elevation: 11 m

Current weather observation

The report was made 38 minutes ago, at 09:50 UTC
Wind 4 kt from the Northwest
Temperature 16°C
Humidity 88%
Pressure 1019 hPa
Visibility: 8000 m
Scattered clouds at a height of 500 ft
Broken clouds at a height of 1000 ft

METAR: EGOW 230950Z 32004KT 8000 SCT005 BKN010 16/14 Q1019 RMK YL01

Time: 11:28 (10:28 UTC)


TAF: missing

Weather observations and forecasts of more than 4000 airports (METAR and TAF reports).

The available stations are represented by yellow and red dots on the map.

Hover mouse over dot to see the name of the station.

Then click to see weather observations and forecasts.

To change the map : click on the green buttons with a black cross to zoom in, on the green button with a dash to zoom out, or on the green arrows for adjacent maps.


METAR-TAF: